Data No,UTC Date,UTC Time,Latitude,Longitude,Course(deg),Temp(degC),Sal(psu)
277,2006/12/14,6:14:00, 12-16.456N,101-00.096E,142,30.1994,31.151
278,2006/12/14,6:15:00, 12-16.288N,101-00.218E,142.3,30.1987,31.1462
279,2006/12/14,6:16:00, 12-16.118N,101-00.341E,142.7,30.208,31.1409
280,2006/12/14,6:17:00, 12-15.949N,101-00.465E,142.9,30.2091,31.1383
281,2006/12/14,6:18:00, 12-15.781N,101-00.588E,142.9,30.2134,31.1365
282,2006/12/14,6:19:00, 12-15.611N,101-00.710E,142,30.2069,31.1328
283,2006/12/14,6:20:00, 12-15.443N,101-00.833E,142,30.2132,31.1302
284,2006/12/14,6:21:00, 12-15.271N,101-00.957E,143.9,30.214,31.1254
285,2006/12/14,6:22:00, 12-15.101N,101-01.079E,143.5,30.2022,31.1214
286,2006/12/14,6:23:00, 12-14.933N,101-01.200E,144.2,30.214,31.1168
287,2006/12/14,6:24:00, 12-14.762N,101-01.321E,144,30.2145,31.1145
288,2006/12/14,6:25:00, 12-14.593N,101-01.444E,144.6,30.207,31.1136
289,2006/12/14,6:26:00, 12-14.424N,101-01.566E,144.4,30.2117,31.112
290,2006/12/14,6:27:00, 12-14.254N,101-01.688E,144.7,30.2132,31.1076
291,2006/12/14,6:28:00, 12-14.085N,101-01.810E,144.6,30.2109,31.1061
292,2006/12/14,6:29:00, 12-13.915N,101-01.932E,145,30.2137,31.1039
293,2006/12/14,6:30:00, 12-13.746N,101-02.053E,144.7,30.2108,31.1008
294,2006/12/14,6:31:00, 12-13.577N,101-02.173E,145.2,30.1984,31.0995
295,2006/12/14,6:32:00, 12-13.409N,101-02.295E,145.2,30.2041,31.0968
296,2006/12/14,6:33:00, 12-13.239N,101-02.416E,146.2,30.1862,31.0952
297,2006/12/14,6:34:00, 12-13.068N,101-02.536E,147,30.2018,31.0951
298,2006/12/14,6:35:00, 12-12.899N,101-02.656E,146.4,30.21,31.0892
299,2006/12/14,6:36:00, 12-12.730N,101-02.778E,145.3,30.2113,31.093
300,2006/12/14,6:37:00, 12-12.561N,101-02.900E,145.2,30.2138,31.0938
301,2006/12/14,6:38:00, 12-12.391N,101-03.021E,145.1,30.213,31.0937
302,2006/12/14,6:39:00, 12-12.221N,101-03.140E,143,30.2136,31.0939
303,2006/12/14,6:40:00, 12-12.051N,101-03.259E,143,30.2225,31.0888
304,2006/12/14,6:41:00, 12-11.881N,101-03.380E,144.4,30.2219,31.086
305,2006/12/14,6:42:00, 12-11.710N,101-03.499E,144,30.2388,31.0859
306,2006/12/14,6:43:00, 12-11.540N,101-03.618E,143,30.237,31.0855
307,2006/12/14,6:44:00, 12-11.369N,101-03.738E,143.8,30.2472,31.0862
308,2006/12/14,6:45:00, 12-11.199N,101-03.859E,144.4,30.2338,31.0891
309,2006/12/14,6:46:00, 12-11.029N,101-03.977E,144.2,30.2377,31.0886
310,2006/12/14,6:47:00, 12-10.860N,101-04.096E,145.4,30.2192,31.0831
311,2006/12/14,6:48:00, 12-10.690N,101-04.214E,145.5,30.2039,31.0777
312,2006/12/14,6:49:00, 12-10.521N,101-04.334E,145.4,30.2082,31.0692
313,2006/12/14,6:50:00, 12-10.352N,101-04.455E,146.6,30.1889,31.0607
314,2006/12/14,6:51:00, 12-10.180N,101-04.573E,150.7,30.2243,31.0578
315,2006/12/14,6:52:00, 12-10.005N,101-04.681E,152.4,30.2677,31.0507
316,2006/12/14,6:53:00, 12-09.826N,101-04.785E,150.7,30.2525,31.0568
317,2006/12/14,6:54:00, 12-09.647N,101-04.889E,151.3,30.2602,31.0727
318,2006/12/14,6:55:00, 12-09.468N,101-04.992E,150.8,30.2582,31.0701
319,2006/12/14,6:56:00, 12-09.288N,101-05.097E,149.8,30.265,31.0675
320,2006/12/14,6:57:00, 12-09.110N,101-05.199E,150.2,30.3103,31.0679
321,2006/12/14,6:58:00, 12-08.936N,101-05.304E,147.8,30.2832,31.0714
322,2006/12/14,6:59:00, 12-08.753N,101-05.406E,148.7,30.2895,31.0815
323,2006/12/14,7:00:00, 12-08.571N,101-05.508E,149.5,30.2935,31.0784
326,2006/12/14,7:03:00, 12-08.053N,101-05.850E,150,30.2541,31.0611
327,2006/12/14,7:04:00, 12-07.876N,101-05.959E,151.2,30.2669,31.0553
328,2006/12/14,7:05:00, 12-07.698N,101-06.063E,151.7,30.2647,31.0544
329,2006/12/14,7:06:00, 12-07.516N,101-06.167E,151.4,30.2597,31.0596
330,2006/12/14,7:07:00, 12-07.332N,101-06.269E,152.6,30.2683,31.0643
331,2006/12/14,7:08:00, 12-07.149N,101-06.370E,153.6,30.2892,31.0655
332,2006/12/14,7:09:00, 12-06.968N,101-06.471E,152.7,30.2961,31.0714
333,2006/12/14,7:10:00, 12-06.787N,101-06.572E,152.9,30.3111,31.0807
334,2006/12/14,7:11:00, 12-06.623N,101-06.692E,144.5,30.2966,31.0859
335,2006/12/14,7:12:00, 12-06.456N,101-06.817E,143.9,30.3342,31.0885
336,2006/12/14,7:13:00, 12-06.292N,101-06.946E,143.2,30.3369,31.0908
337,2006/12/14,7:14:00, 12-06.127N,101-07.073E,142.7,30.3259,31.1003
341,2006/12/14,7:18:00, 12-05.468N,101-07.577E,141,30.3605,31.1023
342,2006/12/14,7:19:00, 12-05.303N,101-07.703E,141.3,30.3521,31.1045
343,2006/12/14,7:20:00, 12-05.139N,101-07.829E,142.2,30.3367,31.1056
344,2006/12/14,7:21:00, 12-04.973N,101-07.954E,142.4,30.3543,31.1051
345,2006/12/14,7:22:00, 12-04.808N,101-08.080E,142.7,30.362,31.1017
346,2006/12/14,7:23:00, 12-04.643N,101-08.205E,143.9,30.3437,31.1024
347,2006/12/14,7:24:00, 12-04.478N,101-08.331E,144.6,30.3471,31.101
348,2006/12/14,7:25:00, 12-04.313N,101-08.457E,144.4,30.3349,31.0984
349,2006/12/14,7:26:00, 12-04.148N,101-08.582E,143.3,30.3427,31.0944
350,2006/12/14,7:27:00, 12-03.983N,101-08.707E,141.3,30.368,31.088
351,2006/12/14,7:28:00, 12-03.816N,101-08.832E,142.3,30.3353,31.0845
352,2006/12/14,7:29:00, 12-03.648N,101-08.956E,142.1,30.3219,31.0817
353,2006/12/14,7:30:00, 12-03.481N,101-09.079E,144.1,30.3097,31.0721
354,2006/12/14,7:31:00, 12-03.312N,101-09.200E,144.8,30.3142,31.0648
355,2006/12/14,7:32:00, 12-03.144N,101-09.321E,143.4,30.304,31.0585
356,2006/12/14,7:33:00, 12-02.978N,101-09.444E,142.8,30.2953,31.0535
357,2006/12/14,7:34:00, 12-02.814N,101-09.569E,144.1,30.275,31.0475
358,2006/12/14,7:35:00, 12-02.650N,101-09.696E,144.9,30.2509,31.0382
359,2006/12/14,7:36:00, 12-02.489N,101-09.822E,143.8,30.2336,31.0302
360,2006/12/14,7:37:00, 12-02.324N,101-09.948E,144.7,30.2222,31.0198
361,2006/12/14,7:38:00, 12-02.158N,101-10.075E,143.6,30.2177,31.0131
362,2006/12/14,7:39:00, 12-01.992N,101-10.203E,143.3,30.2173,31.0063
363,2006/12/14,7:40:00, 12-01.827N,101-10.329E,142.5,30.2298,31.0042
364,2006/12/14,7:41:00, 12-01.661N,101-10.455E,141.9,30.2363,31.0049
365,2006/12/14,7:42:00, 12-01.494N,101-10.581E,142.1,30.2217,31.0084
366,2006/12/14,7:43:00, 12-01.327N,101-10.706E,141.7,30.2417,31.0141
367,2006/12/14,7:44:00, 12-01.160N,101-10.831E,141.1,30.2469,31.0181
368,2006/12/14,7:45:00, 12-00.993N,101-10.956E,141.7,30.3114,31.0262
369,2006/12/14,7:46:00, 12-00.826N,101-11.081E,142.5,30.3358,31.0434
370,2006/12/14,7:47:00, 12-00.659N,101-11.205E,142.9,30.3629,31.0716
371,2006/12/14,7:48:00, 12-00.492N,101-11.330E,142.6,30.3158,31.0991
372,2006/12/14,7:49:00, 12-00.325N,101-11.453E,143.7,30.2344,31.108
373,2006/12/14,7:50:00, 12-00.158N,101-11.578E,144.5,30.2414,31.0949
374,2006/12/14,7:51:00, 11-59.990N,101-11.703E,146.1,30.2497,31.0878
375,2006/12/14,7:52:00, 11-59.821N,101-11.829E,146.3,30.2318,31.0927
376,2006/12/14,7:53:00, 11-59.653N,101-11.954E,145.2,30.2317,31.0983
377,2006/12/14,7:54:00, 11-59.487N,101-12.077E,144,30.239,31.1035
378,2006/12/14,7:55:00, 11-59.318N,101-12.200E,144.5,30.2652,31.1114
379,2006/12/14,7:56:00, 11-59.149N,101-12.323E,143.1,30.261,31.1217
380,2006/12/14,7:57:00, 11-58.979N,101-12.446E,142.9,30.2766,31.1355
381,2006/12/14,7:58:00, 11-58.807N,101-12.568E,143.7,30.2529,31.1454
382,2006/12/14,7:59:00, 11-58.635N,101-12.692E,144.2,30.2163,31.1538
383,2006/12/14,8:00:00, 11-58.464N,101-12.815E,144.5,30.1983,31.1585
384,2006/12/14,8:01:00, 11-58.294N,101-12.935E,145.6,30.1644,31.1621
385,2006/12/14,8:02:00, 11-58.123N,101-13.057E,145.4,30.1473,31.1655
386,2006/12/14,8:03:00, 11-57.954N,101-13.178E,146.1,30.1609,31.1718
387,2006/12/14,8:04:00, 11-57.786N,101-13.298E,146,30.1479,31.181
388,2006/12/14,8:05:00, 11-57.614N,101-13.421E,146.3,30.1219,31.1942
389,2006/12/14,8:06:00, 11-57.442N,101-13.544E,145.4,30.1301,31.208
390,2006/12/14,8:07:00, 11-57.273N,101-13.665E,144.9,30.1477,31.2246
391,2006/12/14,8:08:00, 11-57.102N,101-13.787E,144.7,30.1567,31.2505
392,2006/12/14,8:09:00, 11-56.931N,101-13.910E,144.1,30.1496,31.2804
393,2006/12/14,8:10:00, 11-56.756N,101-14.034E,144.3,30.2196,31.3104
394,2006/12/14,8:11:00, 11-56.587N,101-14.155E,142,30.1983,31.3469
395,2006/12/14,8:12:00, 11-56.413N,101-14.281E,144.8,30.2128,31.3892
397,2006/12/14,8:14:00, 11-56.069N,101-14.534E,144.8,30.1882,31.4577
400,2006/12/14,8:17:00, 11-55.566N,101-14.912E,144.1,30.1212,31.5116
401,2006/12/14,8:18:00, 11-55.397N,101-15.033E,143.7,30.1416,31.538
402,2006/12/14,8:19:00, 11-55.231N,101-15.154E,143.1,30.1476,31.5621
403,2006/12/14,8:20:00, 11-55.067N,101-15.278E,142.9,30.1568,31.5892
404,2006/12/14,8:21:00, 11-54.897N,101-15.408E,146.2,30.1306,31.6172
405,2006/12/14,8:22:00, 11-54.730N,101-15.532E,143.6,30.1436,31.6414
406,2006/12/14,8:23:00, 11-54.560N,101-15.657E,143.2,30.1715,31.669
407,2006/12/14,8:24:00, 11-54.392N,101-15.783E,142.7,30.1977,31.6952
408,2006/12/14,8:25:00, 11-54.225N,101-15.909E,143.2,30.2048,31.7239
409,2006/12/14,8:26:00, 11-54.057N,101-16.036E,142.3,30.2329,31.7592
410,2006/12/14,8:27:00, 11-53.882N,101-16.152E,149.8,30.2515,31.7857
411,2006/12/14,8:28:00, 11-53.697N,101-16.253E,151.2,30.2675,31.814
412,2006/12/14,8:29:00, 11-53.512N,101-16.352E,150.6,30.2592,31.8395
413,2006/12/14,8:30:00, 11-53.327N,101-16.452E,150.5,30.2409,31.8554
414,2006/12/14,8:31:00, 11-53.141N,101-16.550E,151.2,30.2366,31.8656
415,2006/12/14,8:32:00, 11-52.956N,101-16.649E,148.2,30.2638,31.8718
416,2006/12/14,8:33:00, 11-52.784N,101-16.767E,149.3,30.2214,31.8779
417,2006/12/14,8:34:00, 11-52.613N,101-16.886E,141.8,30.2458,31.8832
418,2006/12/14,8:35:00, 11-52.447N,101-17.011E,141.5,30.2256,31.8889
419,2006/12/14,8:36:00, 11-52.280N,101-17.136E,142.9,30.2343,31.8905
420,2006/12/14,8:37:00, 11-52.112N,101-17.261E,143.9,30.2725,31.8977
421,2006/12/14,8:38:00, 11-51.945N,101-17.387E,144,30.257,31.9061
422,2006/12/14,8:39:00, 11-51.778N,101-17.513E,144.5,30.2495,31.9241
423,2006/12/14,8:40:00, 11-51.611N,101-17.639E,144,30.2532,31.9237
424,2006/12/14,8:41:00, 11-51.444N,101-17.764E,144.3,30.2433,31.9155
425,2006/12/14,8:42:00, 11-51.278N,101-17.888E,144.1,30.2333,31.9062
426,2006/12/14,8:43:00, 11-51.112N,101-18.013E,143.5,30.242,31.8678
427,2006/12/14,8:44:00, 11-50.946N,101-18.137E,143.2,30.2793,31.8019
428,2006/12/14,8:45:00, 11-50.778N,101-18.258E,143.6,30.2856,31.7682
429,2006/12/14,8:46:00, 11-50.610N,101-18.379E,143.7,30.2859,31.7509
430,2006/12/14,8:47:00, 11-50.436N,101-18.492E,148.1,30.2621,31.7323
431,2006/12/14,8:48:00, 11-50.263N,101-18.605E,149.4,30.2173,31.7089
432,2006/12/14,8:49:00, 11-50.085N,101-18.713E,151.8,30.1561,31.6844
433,2006/12/14,8:50:00, 11-49.904N,101-18.817E,150.6,30.1501,31.6135
434,2006/12/14,8:51:00, 11-49.724N,101-18.920E,149,30.1349,31.5409
435,2006/12/14,8:52:00, 11-49.543N,101-19.024E,149.4,30.1602,31.5211
436,2006/12/14,8:53:00, 11-49.361N,101-19.129E,149.1,30.1685,31.5208
437,2006/12/14,8:54:00, 11-49.178N,101-19.230E,150.7,30.1506,31.5653
438,2006/12/14,8:55:00, 11-48.992N,101-19.326E,153.2,30.1481,31.5465
439,2006/12/14,8:56:00, 11-48.804N,101-19.419E,153,30.1255,31.4784
440,2006/12/14,8:57:00, 11-48.617N,101-19.515E,153.6,30.0845,31.4432
441,2006/12/14,8:58:00, 11-48.428N,101-19.608E,151.7,30.0664,31.4244
442,2006/12/14,8:59:00, 11-48.245N,101-19.708E,153.6,30.0544,31.405
443,2006/12/14,9:00:00, 11-48.062N,101-19.809E,153.7,30.0586,31.3871
444,2006/12/14,9:01:00, 11-47.879N,101-19.909E,150.1,30.0673,31.3643
445,2006/12/14,9:02:00, 11-47.710N,101-20.031E,144.4,30.0674,31.3507
446,2006/12/14,9:03:00, 11-47.545N,101-20.154E,139.2,30.0724,31.3506
447,2006/12/14,9:04:00, 11-47.381N,101-20.282E,140.9,30.0721,31.3473
448,2006/12/14,9:05:00, 11-47.218N,101-20.413E,141.9,30.0762,31.3402
449,2006/12/14,9:06:00, 11-47.054N,101-20.543E,141.7,30.1064,31.3377
450,2006/12/14,9:07:00, 11-46.890N,101-20.673E,142.8,30.1233,31.3474
451,2006/12/14,9:08:00, 11-46.726N,101-20.804E,143.5,30.1111,31.3929
452,2006/12/14,9:09:00, 11-46.561N,101-20.936E,141.9,30.1183,31.4144
453,2006/12/14,9:10:00, 11-46.398N,101-21.066E,143.6,30.1203,31.4074
454,2006/12/14,9:11:00, 11-46.234N,101-21.200E,141.8,30.1269,31.4213
455,2006/12/14,9:12:00, 11-46.068N,101-21.331E,141.7,30.1479,31.4469
456,2006/12/14,9:13:00, 11-45.905N,101-21.463E,142.1,30.1688,31.4807
457,2006/12/14,9:14:00, 11-45.741N,101-21.595E,140.8,30.1945,31.5262
458,2006/12/14,9:15:00, 11-45.577N,101-21.728E,141.4,30.2438,31.5773
459,2006/12/14,9:16:00, 11-45.413N,101-21.860E,139.8,30.2906,31.6062
460,2006/12/14,9:17:00, 11-45.250N,101-21.994E,140.6,30.3187,31.6595
461,2006/12/14,9:18:01, 11-45.087N,101-22.127E,138.4,30.3508,31.7162
462,2006/12/14,9:19:00, 11-44.926N,101-22.261E,139.8,30.3084,31.7567
463,2006/12/14,9:20:00, 11-44.768N,101-22.396E,138.6,30.2975,31.7636
464,2006/12/14,9:21:00, 11-44.606N,101-22.531E,140.3,30.2984,31.7318
465,2006/12/14,9:22:00, 11-44.444N,101-22.666E,139.9,30.2706,31.7032
466,2006/12/14,9:23:00, 11-44.282N,101-22.802E,141.1,30.2491,31.6814
467,2006/12/14,9:24:00, 11-44.122N,101-22.937E,142.1,30.2566,31.6619
468,2006/12/14,9:25:00, 11-43.961N,101-23.072E,141.9,30.2975,31.6493
469,2006/12/14,9:26:00, 11-43.802N,101-23.206E,143.8,30.3131,31.6472
470,2006/12/14,9:27:00, 11-43.641N,101-23.341E,142.3,30.2636,31.6571
471,2006/12/14,9:28:00, 11-43.478N,101-23.475E,141.6,30.2591,31.6591
472,2006/12/14,9:29:00, 11-43.316N,101-23.609E,139,30.235,31.6322
473,2006/12/14,9:30:00, 11-43.154N,101-23.742E,138.4,30.2515,31.607
474,2006/12/14,9:31:00, 11-42.994N,101-23.876E,138.9,30.2348,31.5808
475,2006/12/14,9:32:00, 11-42.835N,101-24.009E,138.7,30.2607,31.5631
476,2006/12/14,9:33:00, 11-42.677N,101-24.143E,139.7,30.2942,31.5445
477,2006/12/14,9:34:00, 11-42.519N,101-24.276E,140.4,30.2751,31.5411
478,2006/12/14,9:35:00, 11-42.360N,101-24.410E,139.9,30.2919,31.5265
479,2006/12/14,9:36:01, 11-42.199N,101-24.543E,140.8,30.2615,31.5112
480,2006/12/14,9:37:00, 11-42.039N,101-24.677E,141.2,30.2484,31.5064
481,2006/12/14,9:38:00, 11-41.880N,101-24.810E,142.7,30.2357,31.4974
482,2006/12/14,9:39:00, 11-41.720N,101-24.944E,141.3,30.2049,31.493
483,2006/12/14,9:40:00, 11-41.559N,101-25.077E,141.2,30.2079,31.4912
484,2006/12/14,9:41:00, 11-41.400N,101-25.211E,139.9,30.2227,31.4904
485,2006/12/14,9:42:00, 11-41.242N,101-25.344E,139.7,30.2258,31.5218
486,2006/12/14,9:43:00, 11-41.083N,101-25.479E,139.3,30.2222,31.5564
487,2006/12/14,9:44:01, 11-40.922N,101-25.612E,139.1,30.2172,31.567
488,2006/12/14,9:45:00, 11-40.761N,101-25.745E,139.4,30.215,31.5683
489,2006/12/14,9:46:00, 11-40.601N,101-25.878E,139.2,30.2024,31.5715
490,2006/12/14,9:47:00, 11-40.441N,101-26.012E,140.1,30.1931,31.5837
491,2006/12/14,9:48:00, 11-40.280N,101-26.145E,140.1,30.1864,31.5801
492,2006/12/14,9:49:01, 11-40.121N,101-26.278E,141.2,30.1845,31.5691
493,2006/12/14,9:50:00, 11-39.959N,101-26.410E,141.5,30.185,31.5725
494,2006/12/14,9:51:00, 11-39.800N,101-26.544E,143.4,30.1779,31.5807
495,2006/12/14,9:52:00, 11-39.640N,101-26.676E,142.8,30.1826,31.5849
496,2006/12/14,9:53:00, 11-39.480N,101-26.809E,142.7,30.1933,31.5863
497,2006/12/14,9:54:00, 11-39.320N,101-26.942E,141.1,30.2015,31.5899
498,2006/12/14,9:55:00, 11-39.158N,101-27.072E,140.9,30.2104,31.6118
499,2006/12/14,9:56:00, 11-39.001N,101-27.209E,140.4,30.2154,31.6263
500,2006/12/14,9:57:01, 11-38.846N,101-27.347E,139.6,30.2207,31.6411
501,2006/12/14,9:58:00, 11-38.691N,101-27.486E,138.8,30.2314,31.6583
502,2006/12/14,9:59:00, 11-38.537N,101-27.625E,139.3,30.2259,31.6704
503,2006/12/14,10:00:01, 11-38.381N,101-27.763E,139.6,30.2274,31.679
504,2006/12/14,10:01:01, 11-38.224N,101-27.900E,139.2,30.2256,31.6887
505,2006/12/14,10:02:00, 11-38.071N,101-28.040E,139.1,30.2245,31.7048
506,2006/12/14,10:03:00, 11-37.903N,101-28.165E,147.2,30.2207,31.7141
507,2006/12/14,10:04:00, 11-37.731N,101-28.283E,146,30.2099,31.7265
508,2006/12/14,10:05:01, 11-37.561N,101-28.403E,145.9,30.2016,31.7369
509,2006/12/14,10:06:00, 11-37.396N,101-28.525E,143.9,30.2053,31.7401
510,2006/12/14,10:07:00, 11-37.226N,101-28.645E,146.3,30.2171,31.7414
511,2006/12/14,10:08:00, 11-37.053N,101-28.763E,145.4,30.2293,31.7468
512,2006/12/14,10:09:01, 11-36.883N,101-28.882E,145,30.2363,31.7588
513,2006/12/14,10:10:01, 11-36.712N,101-29.000E,144,30.2378,31.7738
514,2006/12/14,10:11:00, 11-36.541N,101-29.118E,143.7,30.2546,31.7808
515,2006/12/14,10:12:00, 11-36.371N,101-29.237E,145.9,30.2666,31.7822
516,2006/12/14,10:13:01, 11-36.200N,101-29.355E,143,30.2606,31.7908
517,2006/12/14,10:14:01, 11-36.033N,101-29.477E,142.8,30.2508,31.798
518,2006/12/14,10:15:00, 11-35.868N,101-29.602E,144.3,30.2299,31.7992
519,2006/12/14,10:16:00, 11-35.702N,101-29.725E,144,30.2305,31.7966
520,2006/12/14,10:17:00, 11-35.537N,101-29.849E,144.3,30.2221,31.7925
521,2006/12/14,10:18:01, 11-35.371N,101-29.973E,144.7,30.2186,31.7943
522,2006/12/14,10:19:00, 11-35.204N,101-30.096E,144.8,30.2022,31.7962
523,2006/12/14,10:20:00, 11-35.038N,101-30.220E,145.1,30.1853,31.7997
524,2006/12/14,10:21:00, 11-34.872N,101-30.343E,145.3,30.1495,31.805
525,2006/12/14,10:22:01, 11-34.706N,101-30.468E,144,30.1183,31.8042
526,2006/12/14,10:23:01, 11-34.542N,101-30.593E,144.4,30.0699,31.7999
527,2006/12/14,10:24:00, 11-34.371N,101-30.712E,146.8,30.0593,31.793
528,2006/12/14,10:25:00, 11-34.200N,101-30.831E,145.6,30.0517,31.7806
529,2006/12/14,10:26:01, 11-34.030N,101-30.951E,145.7,30.0381,31.7728
530,2006/12/14,10:27:01, 11-33.861N,101-31.072E,146.1,30.0302,31.7658
531,2006/12/14,10:28:00, 11-33.692N,101-31.193E,145.8,30.0415,31.7583
532,2006/12/14,10:29:00, 11-33.523N,101-31.314E,144.8,30.0584,31.7557
533,2006/12/14,10:30:01, 11-33.354N,101-31.436E,145.2,30.0552,31.7584
534,2006/12/14,10:31:01, 11-33.184N,101-31.556E,144.8,30.0574,31.7636
535,2006/12/14,10:32:00, 11-33.013N,101-31.676E,145.1,30.0696,31.7684
536,2006/12/14,10:33:00, 11-32.842N,101-31.796E,144.7,30.091,31.772
537,2006/12/14,10:34:00, 11-32.671N,101-31.915E,144.1,30.107,31.7779
538,2006/12/14,10:35:01, 11-32.501N,101-32.035E,143.5,30.145,31.7855
539,2006/12/14,10:36:01, 11-32.331N,101-32.154E,143.4,30.1283,31.7963
540,2006/12/14,10:37:00, 11-32.160N,101-32.274E,144,30.0963,31.7989
541,2006/12/14,10:38:00, 11-31.989N,101-32.394E,144.1,30.0457,31.7847
542,2006/12/14,10:39:01, 11-31.819N,101-32.515E,144.4,30.0259,31.7637
543,2006/12/14,10:40:00, 11-31.649N,101-32.636E,144.3,30.0129,31.7401
544,2006/12/14,10:41:00, 11-31.479N,101-32.757E,144.8,30.0121,31.7209
545,2006/12/14,10:42:00, 11-31.309N,101-32.877E,143.9,30.0172,31.7075
546,2006/12/14,10:43:01, 11-31.139N,101-32.998E,144.6,30.0264,31.7029
547,2006/12/14,10:44:01, 11-30.970N,101-33.119E,146.4,30.0381,31.7032
548,2006/12/14,10:45:00, 11-30.800N,101-33.240E,146.2,30.0427,31.7035
549,2006/12/14,10:46:00, 11-30.628N,101-33.362E,146.6,30.0502,31.7057
550,2006/12/14,10:47:01, 11-30.458N,101-33.483E,146.5,30.0559,31.7067
551,2006/12/14,10:48:01, 11-30.288N,101-33.606E,145.4,30.0579,31.7081
552,2006/12/14,10:49:01, 11-30.115N,101-33.730E,144.5,30.0465,31.7075
553,2006/12/14,10:50:00, 11-29.945N,101-33.848E,145.4,30.0451,31.7058
554,2006/12/14,10:51:01, 11-29.776N,101-33.970E,145.2,30.0424,31.7018
555,2006/12/14,10:52:01, 11-29.606N,101-34.093E,145.3,30.0415,31.6989
556,2006/12/14,10:53:00, 11-29.435N,101-34.217E,144,30.0444,31.697
557,2006/12/14,10:54:00, 11-29.264N,101-34.338E,144.2,30.0553,31.6964
558,2006/12/14,10:55:01, 11-29.095N,101-34.461E,143.5,30.0522,31.6959
559,2006/12/14,10:56:01, 11-28.925N,101-34.583E,142.6,30.0451,31.696
560,2006/12/14,10:57:01, 11-28.755N,101-34.707E,142.2,30.0435,31.6962
561,2006/12/14,10:58:00, 11-28.587N,101-34.830E,142.8,30.0378,31.6962
562,2006/12/14,10:59:00, 11-28.419N,101-34.955E,142.8,30.0272,31.6975
563,2006/12/14,11:00:01, 11-28.250N,101-35.078E,143.2,30.0149,31.6984
564,2006/12/14,11:01:01, 11-28.083N,101-35.202E,143.4,30.0682,31.695
565,2006/12/14,11:02:01, 11-27.912N,101-35.328E,142.9,30.0808,31.6973
566,2006/12/14,11:03:00, 11-27.749N,101-35.451E,144.2,30.0685,31.7113
567,2006/12/14,11:04:01, 11-27.575N,101-35.570E,145.2,30.0712,31.7164
568,2006/12/14,11:05:01, 11-27.404N,101-35.688E,143.7,30.0827,31.7014
569,2006/12/14,11:06:01, 11-27.231N,101-35.810E,144.4,30.0607,31.6913
570,2006/12/14,11:07:00, 11-27.065N,101-35.929E,143.6,30.0563,31.6827
571,2006/12/14,11:08:01, 11-26.896N,101-36.052E,143.7,30.0633,31.6712
572,2006/12/14,11:09:01, 11-26.728N,101-36.175E,143.5,30.0491,31.6678
573,2006/12/14,11:10:01, 11-26.559N,101-36.297E,144.2,30.0394,31.6658
574,2006/12/14,11:11:00, 11-26.391N,101-36.416E,144.9,30.045,31.6636
575,2006/12/14,11:12:01, 11-26.222N,101-36.534E,144.5,30.0462,31.6613
576,2006/12/14,11:13:01, 11-26.048N,101-36.655E,145.2,30.0511,31.6602
577,2006/12/14,11:14:01, 11-25.873N,101-36.777E,145.6,30.0418,31.659
578,2006/12/14,11:15:00, 11-25.705N,101-36.896E,145.1,30.0406,31.6582
579,2006/12/14,11:16:01, 11-25.534N,101-37.016E,145.4,30.033,31.6577
580,2006/12/14,11:17:01, 11-25.364N,101-37.136E,145.8,30.0288,31.6566
581,2006/12/14,11:18:01, 11-25.191N,101-37.255E,145.7,30.0317,31.6575
582,2006/12/14,11:19:01, 11-25.019N,101-37.375E,145.5,30.0211,31.6612
583,2006/12/14,11:20:01, 11-24.849N,101-37.494E,145.1,30.0099,31.6651
584,2006/12/14,11:21:01, 11-24.677N,101-37.613E,145.5,29.995,31.6686
585,2006/12/14,11:22:01, 11-24.507N,101-37.735E,146.1,29.9825,31.6725
586,2006/12/14,11:23:01, 11-24.332N,101-37.855E,146.3,30.0002,31.6766
587,2006/12/14,11:24:01, 11-24.161N,101-37.975E,145.4,29.9975,31.6868
588,2006/12/14,11:25:01, 11-23.993N,101-38.093E,144.4,30.0061,31.7002
589,2006/12/14,11:26:01, 11-23.822N,101-38.212E,145.1,30.0074,31.7115
590,2006/12/14,11:27:01, 11-23.648N,101-38.334E,145.8,30.0045,31.7191
591,2006/12/14,11:28:00, 11-23.480N,101-38.449E,145.6,30.019,31.7215
592,2006/12/14,11:29:01, 11-23.309N,101-38.568E,144.3,30.0177,31.7256
593,2006/12/14,11:30:01, 11-23.140N,101-38.688E,143.8,29.9968,31.7252
594,2006/12/14,11:31:01, 11-22.968N,101-38.809E,144.1,30.0019,31.7231
595,2006/12/14,11:32:01, 11-22.798N,101-38.929E,143.5,30.025,31.722
596,2006/12/14,11:33:01, 11-22.629N,101-39.045E,144.7,30.0135,31.7226
597,2006/12/14,11:34:01, 11-22.458N,101-39.165E,144.4,29.9904,31.7213
598,2006/12/14,11:35:01, 11-22.286N,101-39.286E,144.7,29.9871,31.7137
599,2006/12/14,11:36:01, 11-22.117N,101-39.406E,144.6,29.9829,31.707
600,2006/12/14,11:37:01, 11-21.949N,101-39.526E,144.4,29.964,31.6998
601,2006/12/14,11:38:01, 11-21.783N,101-39.643E,145.3,29.9362,31.6957
602,2006/12/14,11:39:01, 11-21.613N,101-39.764E,145.7,29.9253,31.6871
603,2006/12/14,11:40:01, 11-21.446N,101-39.884E,145.5,29.8827,31.6778
604,2006/12/14,11:41:00, 11-21.279N,101-40.002E,145.6,29.8621,31.6669
605,2006/12/14,11:42:01, 11-21.111N,101-40.121E,145.7,29.886,31.6523
606,2006/12/14,11:43:01, 11-20.942N,101-40.240E,146.4,29.8999,31.6473
607,2006/12/14,11:44:01, 11-20.773N,101-40.360E,146.1,29.8785,31.6468
608,2006/12/14,11:45:01, 11-20.605N,101-40.479E,147.1,29.8777,31.6402
609,2006/12/14,11:46:01, 11-20.440N,101-40.597E,147.4,29.8932,31.6345
610,2006/12/14,11:47:01, 11-20.269N,101-40.719E,146.7,29.9096,31.6362
611,2006/12/14,11:48:01, 11-20.101N,101-40.837E,146.9,29.93,31.6399
612,2006/12/14,11:49:01, 11-19.934N,101-40.955E,147.5,29.9527,31.6427
613,2006/12/14,11:50:01, 11-19.770N,101-41.071E,146.7,29.9611,31.6469
614,2006/12/14,11:51:01, 11-19.599N,101-41.193E,145.3,29.9571,31.6534
615,2006/12/14,11:52:01, 11-19.430N,101-41.311E,145.8,29.9635,31.6601
616,2006/12/14,11:53:01, 11-19.262N,101-41.429E,145.1,29.977,31.6675
617,2006/12/14,11:54:01, 11-19.098N,101-41.545E,143,29.9733,31.6731
618,2006/12/14,11:55:01, 11-18.931N,101-41.664E,145.2,29.9662,31.6788
619,2006/12/14,11:56:01, 11-18.762N,101-41.785E,146,29.9621,31.6885
620,2006/12/14,11:57:01, 11-18.594N,101-41.905E,145.8,29.9658,31.6949
621,2006/12/14,11:58:01, 11-18.428N,101-42.025E,146.1,29.9543,31.7006
622,2006/12/14,11:59:01, 11-18.263N,101-42.144E,146,29.9518,31.7047
623,2006/12/14,12:00:01, 11-18.098N,101-42.264E,146.1,29.9528,31.7055
624,2006/12/14,12:01:01, 11-17.929N,101-42.385E,146.2,29.9546,31.7048
625,2006/12/14,12:02:01, 11-17.765N,101-42.503E,145.1,29.9498,31.704